Погода в Филлинген-Швеннингене

Германия     48°03′36″N   8°29′12″E
темп.,
°C
ветер,
м/с
пор.,
м/с
влажн.,
%
обл.,
%
осадки,
мм/ч
давл.,
гПа
погр.,
м
6 мая, чт
чт623:00+2зюз3975100 0.0 1016366
02:00+3зюз5127495 0.0 1015776
05:00+3зюз41179100 0.0 1014547
08:00+5зюз41380100 0.0 10121200
11:00+7юз61268100 0.1 10101301
14:00+4юз51496100 1.4 10101052
17:00+5ююз61497100 4.9 10071084
20:00+8зюз102091100 13.1 10051481
7 мая, пт
пт723:00+6зюз91689100 0.2 10081204
02:00+6зюз81693100 2.1 10081365
05:00+5зюз81595100 1.9 10101231
08:00+1зсз2699100 6.1 1015254
11:00+4зсз598452 0.1 10161037
14:00+6зсз697340 0.4 10181435
17:00+8зсз57527 0.1 10181964
20:00+5сз22735 0.1 101930
8 мая, сб
сб823:00+1з118025 0.0 102210
02:000ю0082100 0.0 102210
05:000ю2288100 0.0 102214
08:00+4ю2482100 0.0 1021175
11:00+10ю456169 0.0 1018951
14:00+14ююз355186 0.0 10161514
17:00+16ююз46568 0.0 10141314
20:00+12ю227611 0.0 101428
9 мая, вс
вс923:00+8ю238646 0.0 101526
02:00+7ю33865 0.0 101532
05:00+6ю338092 0.0 101340
08:00+10ю357896 0.0 1012111
11:00+16ююв3559100 0.0 1010360
14:00+19ююв4552100 0.0 1009675
17:00+20ююв34555 0.0 1007862
20:00+15ююз3376100 0.0 100730
10 мая, пн
пн1023:00+11ююз347371 0.0 100743
02:00+10ююв337296 0.0 100647
05:00+8ююз488393 0.0 1008143
08:00+11ююз25781 0.0 1009172
11:00+17зсз2363100 0.0 10091224
14:00+17всв2270100 0.4 1009896
17:00+12с4697100 1.8 1009284
20:00+10с4799100 2.4 1008402